Wind_Speed
6 6 5 6 5 4 5 4 6 8 5 4 6 5 8 11 8 7 9 12 14 12 12 13 13 15 16 19 25 28 28 28 27 25 22 19 17 18 17 16 16 14 11 9 8 7 6 6 6 6 6 6 7 8 9 10 10 10 10 9 9 9 10 11 12 14 15 18 19 18 18 21 24 26 27 27 25 22 24 26 24 24 26 26 24 24 25
5 5 5 4 3 3 4 5 8 8 5 4 5 5 11 11 6 8 13 14 12 9 10 14 17 21 25 26 28 28 28 29 27 26 23 20 20 21 19 18 16 13 11 10 8 7 7 7 7 7 6 6 6 7 9 10 11 11 10 11 11 11 11 11 12 12 14 16 18 19 20 21 23 25 25 26 28 28 26 28 28 26 26 28 28 26 26
3 4 4 3 4 5 4 5 9 5 0 1 2 3 8 6 0 5 12 12 6 4 8 13 17 22 24 23 24 26 28 29 28 26 24 22 22 22 21 18 16 12 11 10 8 8 8 8 8 7 7 6 6 6 7 9 10 11 12 12 12 12 12 12 13 13 13 14 16 19 20 21 23 24 23 25 30 33 30 29 29 28 27 28 29 29 28
4 3 4 3 2 2 3 5 7 4 2 1 2 2 4 6 7 9 10 8 5 4 7 11 14 19 21 21 23 26 27 29 28 27 25 23 24 24 21 18 15 13 11 10 9 9 9 9 8 8 7 6 6 6 7 8 9 11 12 12 12 12 13 13 14 14 14 14 15 17 18 20 21 22 23 26 30 32 32 31 29 27 26 27 29 29 30
4 5 5 2 3 4 5 5 6 6 5 3 1 3 0 7 12 10 7 7 5 6 10 11 9 12 16 20 24 27 28 28 28 28 26 24 25 24 20 16 14 13 11 10 9 9 9 8 7 7 7 6 7 7 8 9 10 10 12 11 11 12 14 15 15 15 16 16 15 16 17 18 20 20 22 27 29 29 30 32 32 30 27 26 28 29 30
5 7 3 1 1 1 5 6 6 5 5 7 5 2 1 6 8 7 6 5 5 7 11 13 12 12 17 24 29 29 29 29 28 27 26 24 23 20 17 15 14 12 10 8 8 8 8 8 7 6 7 7 8 9 9 10 10 10 12 13 13 14 15 16 16 16 17 17 17 17 17 17 19 20 22 25 27 28 28 30 33 34 31 27 26 28 30
3 4 2 2 4 7 6 5 1 6 9 11 10 5 3 6 8 10 10 9 7 8 12 18 18 17 20 25 28 27 27 27 27 27 25 23 21 19 17 15 14 11 8 7 7 7 7 7 6 6 7 9 10 10 9 9 10 11 12 12 14 16 17 17 18 18 18 18 19 19 19 19 19 20 21 22 24 25 28 29 31 34 34 30 27 27 29
1 1 2 4 7 6 4 4 2 6 8 10 10 6 3 5 11 13 11 8 8 11 15 20 20 20 21 20 20 23 23 22 23 25 24 22 20 18 17 15 12 9 6 6 6 6 6 6 6 7 8 9 10 9 8 9 11 12 13 13 13 14 15 16 17 17 18 19 20 20 20 20 20 20 20 22 22 23 25 28 30 32 35 34 31 28 27
2 2 1 3 4 5 5 3 1 3 3 6 8 4 2 2 8 16 14 9 10 13 17 22 25 24 20 12 9 17 20 19 19 20 20 20 18 16 14 12 9 6 5 5 6 6 5 4 5 6 8 9 9 9 9 10 12 14 14 13 11 11 12 13 14 14 16 17 19 20 20 20 20 20 19 20 21 21 22 24 27 30 33 34 34 31 27
2 4 1 2 1 3 6 5 5 4 6 7 8 7 0 5 5 19 20 12 12 14 16 23 26 22 13 5 4 14 19 18 18 19 18 18 16 14 13 10 8 5 4 5 6 5 4 4 5 6 7 8 10 10 10 11 13 12 9 7 6 6 7 8 9 11 12 14 15 16 18 19 21 20 20 20 20 20 21 21 22 25 29 31 32 31 31
1 5 3 1 2 4 6 8 8 1 8 9 7 6 1 4 7 19 22 16 15 19 22 24 21 14 6 3 7 15 19 19 20 21 19 17 14 12 10 8 7 5 5 6 5 4 3 4 6 7 8 9 10 11 11 10 8 5 2 2 3 5 6 7 8 8 8 9 11 11 12 14 16 19 19 19 20 19 19 20 20 21 23 25 28 30 32
4 4 2 2 3 4 6 7 5 3 10 12 9 1 4 5 11 20 25 22 21 25 28 24 15 8 5 9 15 20 21 19 19 19 17 15 14 12 10 8 6 6 6 6 5 4 3 5 7 7 8 8 9 8 6 4 1 1 2 3 4 5 7 7 8 8 8 7 9 9 8 8 10 13 15 17 18 17 17 17 17 18 18 20 23 27 30
6 5 3 2 3 5 6 5 2 6 10 9 5 5 7 13 19 24 28 29 27 30 31 23 14 8 7 14 24 25 21 19 18 16 15 14 13 12 11 9 8 7 7 7 6 5 4 6 7 6 6 5 4 3 2 1 1 1 2 2 3 5 6 6 7 7 7 7 8 8 7 7 7 8 10 12 14 14 15 15 16 17 17 18 20 23 26
5 4 4 3 3 6 7 2 1 5 6 2 3 7 16 28 30 26 28 32 31 33 31 24 17 11 11 19 28 26 20 19 19 17 17 16 14 12 12 11 10 9 9 9 7 4 4 5 5 5 3 2 1 1 1 1 2 2 1 2 3 4 5 5 5 5 5 6 6 6 6 6 6 8 9 10 11 12 12 13 14 15 15 16 18 20 23
2 2 3 4 4 7 6 3 2 2 3 6 8 12 21 34 36 29 28 32 32 31 27 20 17 17 20 26 28 23 20 20 19 17 18 18 16 14 13 13 11 9 9 9 6 3 3 4 5 4 2 1 1 1 2 3 4 3 1 3 3 4 4 5 4 3 3 3 3 3 3 3 4 5 7 7 8 9 10 12 12 12 12 13 15 17 19
2 2 3 5 5 7 6 4 5 4 6 13 23 25 22 26 32 30 29 30 31 29 25 22 22 24 26 27 26 22 21 20 19 18 18 17 16 14 12 11 9 8 10 9 5 2 2 3 4 4 2 2 1 0 1 2 3 2 1 2 3 4 4 4 5 6 6 5 4 3 3 2 0 2 2 2 2 3 3 5 6 7 8 10 12 15 16
1 4 5 5 6 6 4 2 6 11 15 20 31 37 31 27 30 30 29 29 28 26 24 25 27 27 27 28 26 25 24 22 20 20 19 17 16 13 10 9 8 9 9 7 5 2 2 1 1 2 2 3 3 2 1 0 1 2 2 2 3 4 4 6 8 8 8 8 8 8 8 7 7 6 5 6 7 8 7 7 6 7 9 10 11 11 12
2 3 4 5 7 6 13 16 13 17 18 17 26 37 37 32 30 29 29 29 28 26 25 27 28 28 28 29 28 27 25 23 21 21 20 17 15 13 11 11 11 11 9 7 5 3 2 2 1 1 2 4 4 3 2 3 2 2 3 4 4 4 7 11 12 11 11 11 12 12 13 13 14 13 13 13 14 13 12 10 10 10 10 9 9 8 8
2 1 5 7 7 9 17 21 20 18 16 15 24 33 34 30 29 27 28 29 28 26 25 26 28 29 29 30 30 28 26 24 23 21 19 17 14 12 12 12 12 11 9 7 5 3 4 5 5 3 4 5 6 6 7 8 8 7 6 5 5 8 13 15 14 14 14 15 15 15 15 16 17 17 17 16 16 15 13 14 15 16 16 15 15 15 17
1 3 8 14 7 9 17 20 19 18 15 15 24 31 30 28 27 27 27 28 28 27 26 25 27 29 30 30 31 29 26 24 22 20 17 15 13 12 12 12 11 9 7 6 5 5 6 7 7 7 7 8 10 10 10 10 11 10 8 7 9 12 16 16 15 15 15 14 15 16 18 20 20 21 20 18 16 16 16 16 18 19 20 22 23 23 23
2 2 8 15 9 7 14 16 17 17 16 14 20 30 33 30 28 27 28 27 26 26 25 24 26 29 30 29 29 29 26 23 20 17 15 13 11 11 11 11 10 8 7 6 5 6 7 7 9 11 12 12 12 11 9 9 9 10 10 10 12 14 17 17 15 14 14 15 16 19 21 23 24 24 24 22 21 21 20 19 19 19 22 25 27 27 28
2 3 3 4 2 1 4 9 13 14 14 14 15 23 29 28 27 28 28 27 25 24 24 23 25 29 30 29 27 26 24 21 18 16 14 12 10 10 10 10 9 7 5 5 7 9 9 8 9 13 14 12 9 9 10 8 7 8 9 10 12 15 17 17 16 16 17 19 20 21 22 24 26 28 28 26 25 26 26 24 23 23 26 28 28 29 31
5 7 6 2 1 3 4 4 7 11 12 12 15 19 22 25 27 26 26 27 26 26 25 23 23 26 29 28 26 24 22 19 16 15 13 11 9 9 9 8 7 6 6 8 10 11 10 9 10 13 14 10 7 6 8 8 6 6 7 8 11 15 17 18 19 19 20 21 22 23 24 25 27 30 31 30 29 28 28 27 27 28 29 31 30 29 32
5 6 6 6 3 1 1 3 3 7 10 11 15 18 19 23 25 24 24 26 27 27 27 25 22 22 25 26 24 22 21 19 16 14 12 9 9 9 8 7 8 10 12 14 15 15 13 12 11 12 13 10 8 7 7 8 9 8 6 7 12 17 18 18 19 20 21 22 23 24 26 26 27 29 30 31 32 30 29 28 29 29 29 30 30 29 30
4 5 5 6 5 0 3 3 2 5 7 8 13 17 20 24 25 25 24 25 25 25 25 25 24 22 23 24 23 20 19 18 16 14 12 11 10 9 9 9 10 13 16 18 17 16 14 12 11 12 12 11 9 9 9 10 11 9 7 9 15 18 18 19 20 20 21 23 24 24 25 25 26 27 28 30 32 33 32 31 30 30 29 29 29 29 28
6 6 6 4 3 0 3 4 5 6 8 12 16 20 22 23 24 23 23 23 23 22 22 24 25 24 21 22 21 19 18 19 17 13 11 12 12 10 10 10 12 15 18 18 17 15 13 11 11 11 12 12 11 10 10 10 10 10 10 12 15 18 19 20 20 21 21 22 23 23 23 24 24 25 27 28 31 33 33 32 31 31 30 29 28 28 28
10 7 5 3 3 1 2 4 6 7 8 13 18 21 22 22 22 21 21 22 22 22 21 23 24 25 23 21 20 20 19 19 18 14 12 12 12 11 10 11 13 16 19 18 16 15 13 12 12 12 13 14 13 11 11 11 11 12 13 14 15 17 19 19 20 21 21 21 21 21 22 22 22 23 25 26 28 29 31 32 32 32 30 29 27 26 25
11 6 5 5 4 1 1 3 5 7 9 11 14 17 18 18 19 19 20 20 21 21 23 23 23 25 25 22 22 22 21 18 17 15 14 13 12 11 12 12 14 17 19 19 17 17 16 15 15 15 15 14 13 12 13 13 13 12 12 13 15 17 18 18 19 19 19 19 19 20 20 20 20 21 22 23 24 26 28 29 30 30 29 27 26 24 24
10 9 7 6 4 2 2 1 3 4 5 6 8 12 13 14 16 17 17 18 18 19 22 24 24 25 24 23 23 23 20 18 17 16 15 14 13 13 13 14 16 18 20 20 19 18 17 16 16 16 16 16 16 15 15 14 13 12 11 12 14 17 18 18 18 18 18 18 17 16 16 17 18 18 19 19 20 23 26 27 27 27 27 27 25 24 23
9 10 9 5 3 5 5 2 0 2 4 5 7 10 11 13 15 16 16 17 18 19 21 24 24 24 23 24 25 21 17 16 17 17 16 15 14 14 14 17 19 21 23 23 20 18 18 16 15 15 16 17 17 17 16 14 13 11 10 10 13 16 17 17 17 17 17 16 15 14 14 15 16 17 17 17 18 20 23 24 25 25 25 25 23 22 22
8 9 8 6 6 7 8 5 3 5 7 9 10 10 11 12 15 17 18 19 20 20 20 22 23 23 24 26 24 20 16 17 17 17 17 16 15 14 15 18 21 23 24 24 21 19 18 17 14 14 14 15 15 16 16 15 13 10 9 9 11 13 15 14 15 15 15 15 14 13 14 15 16 16 16 17 17 18 20 22 23 23 23 23 22 21 20
9 8 7 7 8 8 9 9 8 7 8 8 8 9 10 12 14 16 19 21 21 20 20 21 22 21 22 25 24 21 19 19 18 18 18 17 16 15 15 16 19 21 23 23 22 20 19 18 15 13 13 13 14 15 18 18 14 11 10 10 11 12 14 14 14 14 14 13 13 12 12 14 15 14 15 16 16 17 18 20 21 21 21 21 20 19 18
7 6 4 1 1 2 5 9 10 9 7 6 6 6 7 10 14 16 18 19 20 19 19 20 21 20 21 24 25 23 21 20 19 19 19 19 18 17 16 15 16 18 21 23 22 21 20 19 16 14 14 15 14 14 17 19 16 12 11 12 13 14 14 14 13 13 12 12 12 11 12 13 14 14 15 15 16 17 18 19 20 20 20 19 19 18 17
5 3 1 1 3 4 2 4 10 11 9 7 7 7 6 8 12 15 17 18 19 19 17 18 20 20 22 24 26 25 23 22 21 21 22 22 20 19 17 16 15 16 18 20 22 23 22 21 19 17 16 16 14 13 15 18 16 13 13 15 16 17 17 16 14 12 12 11 11 11 13 14 15 15 15 14 15 16 17 18 18 18 18 19 19 18 16
6 5 4 4 4 4 4 2 5 9 11 10 9 9 9 8 10 13 16 17 18 18 17 16 17 19 21 23 25 25 25 24 23 23 24 24 22 20 19 18 18 17 16 17 19 21 22 23 21 19 17 16 14 13 15 17 15 14 15 17 18 18 18 18 16 14 13 11 10 11 12 13 14 14 14 14 15 15 16 17 17 17 17 17 18 18 16
7 7 7 8 8 6 5 3 2 4 7 8 8 8 9 10 11 11 12 14 16 17 16 15 17 20 21 22 23 26 28 26 24 24 26 26 23 21 22 21 21 20 19 18 17 18 21 24 24 22 19 17 15 15 16 17 15 14 17 19 18 15 16 17 16 16 17 16 13 11 11 11 12 13 13 13 14 15 15 15 15 15 16 16 16 17 17
6 6 6 6 6 4 4 3 3 3 4 5 6 8 9 10 11 11 10 11 14 16 16 16 17 19 20 20 22 26 30 28 25 25 28 27 24 23 24 24 23 23 23 21 19 18 21 24 25 24 22 20 18 18 18 17 16 15 16 18 18 16 15 15 16 16 19 20 18 15 12 12 12 13 12 12 12 13 14 14 14 14 14 15 16 17 17
5 5 4 5 5 4 3 4 5 6 7 7 8 9 9 10 10 10 11 12 13 13 13 15 17 17 17 19 21 26 30 30 27 27 29 29 27 25 25 26 26 26 25 22 19 20 21 23 24 24 23 21 21 22 21 19 18 17 16 17 19 18 15 14 15 15 17 19 19 17 15 14 14 14 14 15 13 12 11 12 13 13 13 14 17 18 18
6 6 6 6 7 7 7 7 8 9 10 11 12 12 13 13 12 11 12 14 14 12 12 14 17 18 19 22 25 28 31 31 29 28 30 31 28 26 25 24 25 25 22 19 18 19 21 22 23 24 22 20 21 23 24 22 21 20 18 19 21 19 15 12 13 15 16 16 16 16 16 15 14 15 16 17 17 15 13 12 12 13 13 13 16 18 17
6 5 6 7 8 8 10 11 11 11 12 13 13 13 14 15 15 14 13 14 14 12 12 14 18 20 21 24 26 28 30 30 27 27 29 31 29 26 25 24 24 24 22 19 18 19 20 22 22 22 21 20 20 22 23 22 21 19 19 20 22 20 16 13 14 15 16 16 16 15 15 14 14 15 17 18 18 17 16 15 15 14 13 12 14 17 18
5 5 5 6 7 8 9 10 11 12 13 13 13 13 13 14 14 14 13 13 13 13 12 13 16 18 19 20 23 26 27 27 25 26 29 31 30 29 27 26 25 25 24 21 19 19 20 20 20 19 19 19 19 20 20 20 19 18 18 21 23 20 16 14 14 14 15 16 17 16 16 15 15 15 15 15 14 14 15 16 17 17 15 12 12 15 18
5 4 4 4 5 6 7 9 10 11 12 13 13 12 11 12 13 13 13 12 13 13 14 13 14 17 19 21 23 24 25 25 25 26 28 29 29 28 26 25 25 25 24 23 21 20 20 19 18 18 17 17 17 18 19 19 18 18 19 21 23 21 16 14 14 14 14 15 16 16 16 17 17 17 15 14 12 12 14 16 17 18 17 14 12 14 18
5 5 4 3 2 3 5 8 9 10 11 11 11 11 11 11 12 14 15 15 14 15 16 15 15 17 20 23 24 24 24 25 25 26 27 28 27 26 23 22 23 26 26 24 22 22 21 19 18 18 18 16 16 17 18 18 17 18 20 22 23 22 19 15 14 14 14 14 15 16 16 17 18 19 18 16 14 13 13 15 16 17 18 17 13 14 17
5 5 5 5 4 3 4 6 7 9 9 10 11 12 12 12 13 14 16 17 17 18 19 18 17 17 19 22 25 25 24 24 25 25 26 27 28 26 23 20 22 26 28 27 24 22 22 20 19 19 19 17 17 18 19 18 17 17 20 22 23 22 21 18 16 15 14 12 12 13 15 15 16 17 16 15 15 15 14 14 14 14 16 18 17 16 18
6 6 6 7 7 7 6 6 8 9 10 10 10 12 13 13 13 14 16 18 18 18 18 19 18 17 17 21 24 24 23 23 24 25 26 27 28 26 24 22 22 25 28 27 24 23 22 20 19 19 20 19 18 18 18 17 16 17 20 22 21 20 20 19 17 16 14 12 11 12 13 13 14 14 13 13 15 17 15 14 13 11 13 16 19 20 20
6 7 7 7 8 8 8 8 9 10 10 10 10 10 12 13 13 14 15 16 16 16 16 17 17 16 16 19 23 24 23 23 24 23 23 23 22 21 20 20 22 26 28 26 24 23 21 20 19 20 20 19 19 19 17 16 18 21 22 20 18 18 19 19 18 17 15 13 13 14 14 14 15 15 13 12 13 15 15 14 14 12 12 14 17 19 20
7 7 7 7 7 8 8 9 9 9 10 10 10 9 10 12 13 13 13 14 14 14 15 15 15 15 15 18 21 23 23 23 24 22 20 20 20 18 16 17 21 26 28 25 22 21 21 20 19 20 19 19 19 19 17 16 21 24 21 17 16 18 19 19 19 18 16 14 14 14 15 16 17 17 15 13 14 14 14 14 14 14 13 13 15 16 18
6 7 7 7 8 9 9 9 10 10 9 9 9 9 9 10 11 10 10 10 11 12 13 14 14 14 14 17 20 21 21 22 22 20 19 20 20 17 15 16 19 23 26 25 22 21 21 20 19 19 18 17 17 16 15 17 23 24 20 16 18 20 21 20 19 18 17 16 15 15 16 16 16 16 16 16 16 16 15 15 16 16 16 15 14 13 14
6 7 8 8 9 9 8 9 10 9 8 8 9 8 7 8 9 9 9 9 9 11 12 13 14 14 15 16 18 19 20 20 19 17 17 17 16 14 13 15 18 22 25 25 23 21 21 20 19 17 16 16 16 14 15 19 24 23 19 17 20 22 21 20 19 18 18 18 17 16 16 16 16 16 17 17 17 17 17 17 17 18 18 17 17 16 15
7 7 7 8 9 9 8 8 9 9 8 8 8 8 7 7 8 9 9 9 9 11 12 13 14 15 16 17 17 18 19 20 19 17 16 15 13 11 11 14 17 21 24 26 24 22 21 20 18 16 16 16 15 14 15 21 24 22 19 18 21 21 20 20 20 19 19 18 17 16 16 17 17 17 18 18 18 18 18 17 17 18 18 18 18 17 16
7 6 7 8 8 9 8 8 9 9 8 8 8 9 9 8 8 8 9 9 10 11 12 14 15 16 17 18 19 19 19 19 18 17 14 13 11 11 13 15 17 20 23 25 24 22 21 20 19 17 17 15 13 12 16 22 24 21 19 19 21 20 20 20 20 19 18 17 16 16 16 16 16 16 17 18 18 18 18 18 17 17 17 17 16 16 15
5 6 8 9 10 11 9 8 8 9 8 7 8 9 10 9 9 9 10 10 11 12 13 15 16 17 17 18 18 18 17 17 16 15 14 13 12 14 16 18 18 18 20 23 23 23 22 21 19 18 17 14 11 12 18 24 23 20 20 21 20 19 19 19 19 18 17 16 15 15 15 15 15 16 17 18 18 17 17 17 17 17 16 15 15 15 14
Wind_Direction
211 197 220 215 176 180 203 220 257 268 273 168 167 192 170 148 154 197 202 179 173 177 174 172 175 169 165 170 173 173 170 168 168 168 167 170 174 176 176 179 184 185 188 198 208 221 238 247 255 264 268 268 267 264 260 258 258 261 261 252 244 246 252 254 252 249 245 241 237 235 235 232 227 224 223 222 222 223 224 225 227 229 230 230 232 233 235
189 198 249 252 214 205 203 221 244 262 269 199 194 199 176 169 190 189 175 178 183 179 174 176 174 168 166 168 170 169 166 165 166 168 169 174 178 178 178 180 182 185 191 197 207 227 247 258 263 268 272 273 275 272 264 260 260 262 264 261 254 247 246 249 250 247 242 240 239 236 234 233 231 230 229 228 229 228 223 221 223 225 227 230 232 234 235
211 212 214 240 277 254 218 240 250 250 281 200 210 180 170 165 112 149 154 164 193 215 177 166 163 159 156 158 162 163 164 166 168 171 174 178 179 177 176 177 181 187 194 202 220 238 251 259 266 275 278 277 280 278 271 267 263 262 262 262 259 254 248 247 248 250 245 239 239 238 236 235 233 234 235 232 229 229 228 224 223 225 226 227 229 232 234
257 246 185 191 317 336 331 293 256 213 151 230 250 208 173 146 123 118 128 153 203 214 156 143 149 150 145 151 157 158 163 168 171 174 178 180 179 177 177 180 185 194 202 214 231 244 255 262 267 276 279 277 279 277 272 270 266 264 264 263 262 260 253 248 247 249 249 246 243 242 240 238 235 235 238 237 231 231 231 229 226 226 226 227 229 231 233
267 261 208 195 47 31 338 285 218 190 173 152 65 323 267 139 135 134 156 185 189 162 144 136 145 151 148 153 156 157 165 172 174 175 175 175 176 176 179 183 189 198 207 221 237 250 262 268 269 276 282 282 280 278 276 276 276 276 274 271 269 267 262 257 251 248 249 250 251 249 245 242 237 234 236 238 236 235 234 232 229 226 226 227 229 230 233
267 266 238 61 43 244 261 243 200 185 167 132 105 24 116 132 130 130 147 145 116 130 147 147 154 162 157 156 159 162 168 170 171 172 171 171 173 175 180 186 191 199 208 224 242 253 265 274 278 281 281 282 286 288 287 286 289 287 281 276 271 269 268 266 261 256 251 249 250 251 250 247 242 236 235 238 238 236 235 234 231 228 226 226 227 229 231
241 274 68 99 225 226 240 261 187 119 118 113 102 79 95 122 113 99 100 107 115 138 150 149 151 153 154 157 161 164 168 171 171 170 169 172 175 177 181 187 191 198 213 234 246 254 263 270 276 279 278 283 291 292 290 291 294 292 288 283 274 269 268 268 268 266 261 255 251 250 248 247 245 241 238 237 237 237 235 234 233 231 228 228 229 229 229
222 321 109 193 235 249 275 310 45 95 95 97 89 52 14 134 125 114 110 118 131 136 138 139 141 144 146 150 158 164 170 176 175 174 173 176 182 184 187 192 194 201 229 248 248 257 263 265 275 283 284 288 292 288 284 287 291 293 294 292 284 276 271 268 268 267 264 261 256 253 249 246 244 243 241 239 238 238 237 235 235 233 231 231 233 231 229
188 145 192 246 266 286 306 330 129 135 126 130 121 106 287 253 127 124 125 130 135 132 131 133 135 137 132 120 139 163 171 177 179 179 179 179 182 184 186 194 200 210 242 249 246 257 264 274 299 307 300 295 292 285 280 285 289 293 294 290 282 277 273 269 267 262 259 257 256 255 253 248 245 245 243 241 239 240 240 238 237 236 234 235 236 234 232
129 115 71 341 347 256 265 252 222 176 145 149 134 118 164 292 153 138 135 140 144 134 132 136 134 131 123 97 156 168 170 176 176 173 174 175 179 182 182 189 196 206 234 237 240 257 278 305 326 331 317 299 293 289 284 284 286 285 286 285 287 295 295 290 284 274 261 253 251 252 252 249 247 247 245 241 238 239 242 242 242 240 238 240 241 237 234
142 115 127 154 173 235 248 249 256 170 117 125 108 97 133 272 186 150 140 143 150 144 144 146 138 127 129 194 189 168 168 175 171 167 169 171 175 181 181 183 186 193 210 219 229 248 280 309 320 329 321 302 292 289 285 282 281 281 300 336 334 335 336 333 325 314 291 267 256 252 249 246 245 245 245 242 239 238 241 244 245 243 241 241 241 239 236
178 141 151 182 214 247 243 247 264 90 107 112 106 124 251 213 180 165 151 150 158 154 150 150 147 145 176 191 179 166 163 167 168 169 173 171 172 175 169 166 178 190 201 210 219 232 263 305 320 330 325 305 290 289 290 288 305 42 21 352 346 347 346 349 350 344 332 306 283 271 261 252 248 247 245 243 241 239 240 243 245 245 245 244 241 240 240
182 175 184 188 233 240 231 254 279 109 106 103 121 219 211 166 171 176 163 156 159 158 156 160 169 178 181 173 167 161 157 158 160 167 173 170 170 170 163 165 179 189 197 203 210 227 275 315 329 343 344 327 307 297 308 6 43 17 348 343 359 356 349 358 4 356 347 333 315 300 283 264 252 247 244 243 242 241 241 243 245 246 248 250 249 246 245
184 174 177 189 253 234 203 203 355 124 126 142 217 191 164 159 169 179 168 160 161 162 165 171 173 160 150 158 160 160 161 158 155 161 168 167 166 164 163 171 181 187 193 194 202 233 295 326 343 6 20 15 359 285 284 277 236 247 303 348 359 354 351 1 10 4 353 343 332 325 310 284 262 248 241 237 234 233 234 235 239 243 245 248 251 251 249
163 124 159 176 224 239 207 147 80 108 174 197 168 146 153 163 169 173 168 163 165 166 166 166 158 146 148 155 158 159 159 155 153 161 165 164 163 162 164 172 180 190 195 194 203 245 311 344 4 26 56 160 188 268 284 264 236 228 269 329 344 352 351 360 21 33 20 2 351 350 343 315 279 257 250 242 232 230 230 229 233 238 242 247 253 254 253
127 143 198 194 224 265 265 224 203 179 169 166 151 143 153 167 168 167 166 164 167 167 161 154 149 147 150 155 156 156 157 156 158 164 164 162 163 163 166 172 181 200 206 200 201 231 306 349 20 53 107 161 136 66 298 263 237 232 272 316 360 12 3 16 50 60 56 51 48 48 51 44 311 244 245 230 196 188 199 211 222 227 226 236 247 247 244
230 202 226 255 284 313 23 118 182 155 144 156 156 153 157 165 166 166 164 161 165 167 158 150 149 149 152 155 156 158 160 160 162 164 165 165 164 165 170 175 186 203 206 199 193 200 255 300 45 79 118 134 116 95 56 10 272 298 322 2 33 28 32 58 71 74 73 72 72 76 82 84 86 97 111 114 111 109 115 132 152 175 188 202 219 226 225
295 258 264 303 322 11 72 92 121 133 132 148 159 157 159 164 168 170 167 164 166 165 158 152 151 152 154 157 159 160 159 158 159 160 161 163 164 168 172 174 184 194 194 190 194 206 234 227 183 134 144 135 127 117 79 65 60 47 49 59 61 64 73 76 78 79 77 73 71 75 82 85 86 89 96 103 107 106 107 112 120 135 152 165 174 171 159
17 269 292 323 348 30 62 84 107 121 127 149 164 163 162 166 171 173 171 169 167 164 161 156 153 156 159 159 160 162 160 158 159 160 161 162 164 170 174 177 186 194 194 196 206 226 242 223 203 195 175 145 132 123 103 86 79 76 74 77 85 90 88 84 83 86 84 79 77 78 81 85 87 88 92 100 106 103 98 100 104 109 114 118 121 123 123
294 201 294 309 329 50 61 74 92 99 108 145 169 171 167 167 174 177 174 171 167 164 163 160 158 161 165 164 163 163 163 162 164 167 170 169 167 170 174 178 187 196 207 225 238 243 230 209 192 187 174 146 133 128 114 95 82 74 73 82 92 96 97 93 91 91 89 87 88 89 89 89 90 89 90 92 95 93 93 98 102 106 110 112 112 115 118
308 210 304 311 321 54 65 74 88 93 97 120 159 173 173 173 175 176 172 171 170 167 165 167 165 165 167 170 169 167 167 168 169 171 174 173 172 175 177 182 193 206 223 243 238 206 189 176 168 171 164 148 140 142 138 120 94 76 73 81 91 100 104 102 100 98 96 96 97 96 95 95 94 91 89 88 89 90 90 92 95 101 108 111 111 113 114
298 227 256 298 291 331 26 65 94 111 111 108 136 165 174 176 176 173 168 167 169 169 170 172 171 168 169 173 174 171 171 172 174 175 175 173 175 182 185 189 200 213 219 211 191 178 171 160 156 161 159 153 151 159 163 154 120 83 72 79 96 108 111 109 109 108 105 102 100 99 98 98 97 94 90 87 87 89 91 93 96 100 104 105 107 110 110
248 250 255 256 176 237 288 20 92 126 133 129 137 154 169 176 176 175 172 167 166 169 174 177 177 173 172 175 177 173 171 173 175 176 177 180 183 184 185 188 190 182 168 162 161 159 154 149 155 161 160 155 150 157 169 174 153 109 78 81 108 119 118 114 114 112 109 107 104 103 101 100 99 98 96 94 92 92 95 98 100 101 103 104 106 108 108
258 269 281 297 298 235 12 15 76 129 133 139 147 155 168 177 178 180 179 173 170 171 174 179 183 181 176 177 179 174 170 171 174 175 177 186 188 180 176 174 168 157 151 147 144 141 139 139 148 159 161 154 140 136 149 162 157 141 112 107 123 126 122 119 118 115 113 112 111 109 107 104 102 102 102 102 101 101 102 104 105 105 105 105 104 103 103
269 301 305 301 300 47 90 60 89 134 142 153 160 167 175 179 178 180 179 173 172 174 175 179 185 185 181 179 180 178 173 171 174 176 176 181 184 178 168 161 156 153 152 149 144 140 137 135 137 147 156 157 150 146 153 164 168 162 139 121 125 128 126 124 123 122 119 117 115 112 109 108 106 106 107 108 110 112 112 111 109 108 105 104 103 102 101
254 302 308 284 274 359 96 98 96 119 156 168 165 165 167 168 170 174 175 173 174 178 180 182 184 186 187 184 182 182 177 172 173 178 181 183 184 179 165 156 155 158 159 155 147 142 141 137 134 139 148 154 155 155 156 162 168 158 134 118 120 125 127 127 127 126 124 121 117 114 111 110 109 108 110 113 116 119 120 117 112 109 106 103 102 102 102
247 282 308 280 253 308 63 99 99 113 151 164 161 157 157 160 164 166 167 171 176 181 185 186 185 186 189 188 186 184 178 171 172 180 189 189 186 178 166 157 157 163 166 159 148 145 148 147 141 140 145 151 152 147 144 148 151 141 126 119 121 126 128 129 129 128 127 124 120 116 113 111 109 109 112 116 120 122 123 120 116 112 109 107 105 103 102
237 249 298 305 287 288 76 111 127 128 130 142 155 160 162 166 170 169 167 168 173 180 185 187 187 186 187 188 186 183 178 173 176 183 189 189 184 177 170 163 161 166 168 161 152 150 150 147 144 142 146 151 152 146 142 145 146 138 129 127 128 129 131 133 131 128 128 125 122 119 116 113 111 110 112 117 122 125 125 123 120 117 115 113 111 107 103
222 224 254 283 278 223 194 156 151 142 117 117 146 162 171 177 176 174 172 170 172 177 180 183 186 189 190 191 189 185 181 182 186 188 187 185 183 182 176 168 164 167 166 162 159 158 155 152 149 146 144 146 150 151 148 145 142 136 133 135 135 134 134 134 132 129 128 127 126 124 122 120 118 117 115 117 123 128 129 127 125 123 121 119 116 113 108
217 220 234 255 244 213 222 249 140 179 214 222 195 178 179 183 179 173 172 175 179 180 179 180 184 190 193 196 197 196 196 197 194 189 187 185 187 188 180 170 169 170 169 168 170 169 164 163 164 160 152 148 150 154 155 152 148 143 141 144 145 141 138 136 134 133 133 135 135 131 126 126 127 125 122 120 125 131 133 132 131 130 127 123 120 116 113
203 205 222 261 277 249 232 222 179 163 181 200 204 193 185 184 181 177 176 179 182 183 183 185 189 193 196 199 201 205 208 203 194 190 189 190 193 196 190 180 179 180 177 177 180 180 175 174 179 179 171 163 163 166 166 164 161 160 160 158 153 149 145 140 135 132 134 139 143 138 133 133 132 129 126 126 130 135 138 138 137 134 129 126 124 121 117
217 219 232 266 279 256 224 203 186 171 163 170 186 195 194 192 191 187 185 186 188 189 189 191 195 197 199 201 204 206 205 200 194 192 192 192 197 204 202 194 191 190 186 185 189 190 186 183 187 189 183 176 176 177 176 174 171 166 164 163 160 159 155 145 135 133 133 136 140 140 141 143 141 134 130 130 133 138 141 141 140 137 132 129 128 126 122
221 222 216 229 323 255 211 197 192 188 180 173 181 197 205 207 206 203 199 196 196 195 194 195 201 205 205 205 206 205 201 196 194 194 195 197 200 205 207 203 200 198 196 196 199 201 195 188 185 184 178 174 173 173 176 180 178 167 157 157 159 165 164 153 144 143 142 139 137 135 136 142 142 135 131 133 136 140 144 145 143 140 136 134 133 131 130
220 220 189 59 34 25 12 209 207 209 208 205 212 225 230 223 218 217 214 209 206 207 207 205 204 203 203 204 205 202 199 197 197 199 200 201 200 202 204 205 204 202 201 202 206 207 201 194 188 182 175 174 175 172 174 180 181 175 166 160 158 162 169 171 169 167 160 151 145 137 133 136 137 134 133 138 141 142 145 148 147 145 144 143 142 140 142
229 241 262 277 287 323 349 326 232 222 221 221 226 235 240 240 236 232 229 225 220 217 216 212 206 202 202 203 204 206 207 207 208 208 205 202 199 198 201 203 204 203 203 206 209 208 203 197 194 190 182 179 181 180 179 181 183 183 177 168 161 163 173 180 184 186 183 174 163 154 147 144 142 139 137 138 140 143 147 151 154 155 154 153 152 153 155
245 253 265 276 280 284 296 309 286 239 233 231 234 240 245 248 249 247 243 236 225 217 214 213 211 210 209 208 211 216 216 215 214 213 208 202 197 195 199 204 205 205 208 212 212 206 201 199 199 198 194 190 189 190 188 187 185 183 179 176 174 177 183 187 191 198 205 203 191 175 165 160 157 155 150 145 143 147 153 157 161 164 167 167 164 163 164
250 254 255 263 270 268 259 250 246 259 263 249 241 244 248 250 252 255 254 243 229 222 221 221 219 220 220 219 221 223 221 217 216 215 210 203 197 195 199 205 207 208 212 215 209 200 198 199 199 200 203 204 202 200 197 193 188 186 185 187 188 189 190 194 199 207 213 212 205 196 191 186 180 176 174 169 162 158 160 164 168 171 175 177 175 171 170
251 250 244 250 255 253 250 241 238 248 259 259 254 253 252 250 251 255 256 250 241 236 233 229 226 227 224 219 221 224 221 218 217 214 209 204 199 197 201 206 209 212 216 216 208 198 196 198 199 203 207 210 209 205 202 198 196 196 196 196 195 193 193 198 202 204 203 202 199 198 201 201 197 194 195 194 189 179 173 173 175 177 180 183 182 180 177
277 264 259 262 263 263 263 257 246 244 248 251 253 254 254 253 252 251 252 252 250 249 242 231 225 224 220 218 221 223 220 217 216 214 209 206 204 203 206 212 217 221 222 218 208 201 197 196 200 204 206 207 207 206 205 205 205 206 205 200 196 195 195 193 192 192 193 192 191 192 195 200 202 206 208 208 205 201 197 192 187 185 185 185 187 187 182
302 287 270 259 255 259 262 259 254 251 249 250 251 251 251 252 249 244 244 247 249 251 246 231 226 226 224 221 222 220 217 216 218 216 210 208 207 207 209 214 220 224 225 219 213 207 200 198 201 203 202 202 204 205 207 207 206 206 205 200 196 194 194 189 185 189 194 195 193 193 195 197 199 203 209 212 212 212 211 206 201 197 190 185 188 191 189
320 310 289 265 255 257 258 258 259 258 255 256 257 253 250 251 250 248 249 250 251 252 248 237 232 233 229 221 218 218 219 220 220 215 211 210 208 207 208 212 217 222 222 220 217 214 207 204 204 202 198 199 201 202 204 205 202 198 197 196 195 195 196 196 197 201 202 199 197 199 201 200 198 201 206 210 212 214 213 208 206 205 198 188 185 189 190
346 342 327 297 274 264 259 259 263 265 263 264 264 258 252 249 250 253 258 259 256 254 251 244 239 237 231 224 222 222 223 223 221 216 214 214 214 214 214 215 216 219 221 220 220 219 215 211 208 203 200 202 205 206 207 208 206 200 197 196 196 196 195 195 202 208 209 206 205 206 206 204 204 207 211 213 217 222 217 208 205 207 204 197 192 193 195
8 359 348 333 299 270 264 265 267 267 265 264 263 260 256 250 248 251 257 257 254 251 248 244 240 233 226 223 224 223 222 223 223 219 217 218 221 224 224 221 219 220 221 221 220 219 217 214 210 208 209 211 212 213 214 215 210 205 202 201 201 201 198 194 198 209 217 221 219 215 210 208 208 212 216 220 226 228 218 206 203 206 206 205 204 205 206
17 3 353 351 346 319 292 284 282 279 273 263 254 251 250 248 247 250 253 253 250 246 242 240 239 233 223 220 222 223 224 224 223 220 217 216 218 221 224 225 222 220 220 221 220 218 217 214 211 210 214 218 218 219 219 218 212 206 202 202 203 205 203 200 201 208 216 222 217 207 203 205 209 211 213 214 213 212 208 202 200 202 206 210 214 214 212
4 357 356 356 354 346 328 310 301 299 294 281 264 252 247 245 246 248 249 250 251 249 244 240 238 234 224 220 221 223 225 228 227 223 218 217 217 217 219 221 222 220 219 220 220 218 216 215 213 214 218 221 221 220 220 216 208 199 193 193 196 201 203 202 203 206 211 214 212 206 204 207 210 209 207 204 204 206 209 209 206 200 201 208 213 214 213
341 339 342 345 345 342 336 324 312 303 299 294 281 264 254 250 250 250 250 251 252 252 249 243 238 233 226 222 221 220 221 224 226 224 222 223 226 225 221 221 223 222 219 218 218 217 216 216 216 216 218 220 219 219 217 210 198 190 187 189 196 201 201 200 201 204 208 213 214 212 210 213 216 218 217 213 210 212 217 221 221 215 205 202 206 210 214
322 318 320 324 325 325 327 328 324 312 303 299 294 281 265 258 256 255 256 256 253 247 240 235 231 228 224 222 221 220 220 219 219 220 222 225 229 231 229 227 227 224 220 218 217 215 214 215 216 215 216 217 217 217 213 203 192 189 189 193 197 197 194 196 200 206 212 218 217 210 207 211 218 224 225 222 219 219 223 227 228 225 218 209 205 206 211
318 309 307 308 309 310 314 320 323 320 310 302 300 293 277 263 257 254 252 251 243 234 228 226 224 222 221 220 221 223 224 222 220 219 221 222 224 228 234 233 228 223 220 219 218 215 214 216 216 214 214 214 212 209 206 199 193 191 192 195 195 193 194 198 204 208 214 216 214 210 210 214 218 221 221 221 223 226 228 229 229 230 231 229 225 219 216
312 304 301 298 297 301 308 316 320 319 310 300 299 297 284 269 261 256 249 239 225 216 216 220 221 219 218 218 219 221 223 224 223 224 225 224 222 226 234 233 225 218 217 217 216 214 214 214 213 212 213 211 207 206 206 200 194 192 193 197 197 197 200 206 210 212 214 213 213 217 223 228 230 229 228 227 228 229 229 229 231 233 236 239 240 238 234
311 308 310 307 301 299 304 313 320 319 311 300 296 294 284 273 267 265 260 247 227 213 211 215 217 217 214 213 214 216 219 221 222 226 228 223 214 214 225 229 223 217 215 215 213 212 212 211 210 210 208 204 203 209 208 199 193 193 196 198 197 199 204 210 213 216 218 218 219 224 231 235 238 239 237 235 233 232 231 232 233 234 236 238 239 239 237
311 318 326 323 310 297 293 299 308 313 313 308 301 294 287 279 273 270 265 254 240 229 222 217 215 212 209 208 210 214 217 218 220 222 220 213 205 207 215 216 214 214 215 213 212 213 212 210 208 207 202 198 202 211 204 194 191 193 194 194 196 201 207 211 215 218 221 224 227 232 237 241 242 240 236 234 233 232 233 234 235 234 233 233 233 233 233
319 323 320 308 295 286 281 283 289 295 298 303 305 301 294 284 273 264 259 252 243 237 231 225 220 215 212 211 213 216 217 218 220 219 214 209 208 212 212 209 209 212 213 210 209 213 216 214 210 207 204 204 212 211 198 191 190 191 191 193 200 209 213 216 220 223 225 228 233 238 242 247 246 241 236 235 234 233 233 232 229 225 223 223 224 226 227
Height
1461 1462 1463 1461 1463 1466 1466 1467 1467 1464 1464 1468 1472 1475 1476 1478 1487 1490 1485 1485 1487 1486 1486 1487 1487 1488 1490 1492 1494 1496 1499 1501 1503 1505 1507 1509 1510 1511 1512 1513 1513 1513 1514 1513 1513 1513 1512 1511 1511 1510 1510 1509 1508 1508 1507 1507 1507 1508 1508 1508 1508 1508 1507 1507 1507 1507 1508 1510 1511 1512 1513 1513 1514 1516 1516 1518 1519 1520 1521 1522 1524 1525 1526 1527 1528 1529 1530
1460 1460 1461 1461 1462 1464 1464 1464 1464 1462 1463 1466 1467 1471 1472 1472 1473 1474 1477 1484 1484 1481 1482 1482 1481 1484 1487 1490 1493 1495 1498 1500 1502 1504 1506 1508 1509 1510 1511 1512 1512 1513 1513 1512 1512 1512 1511 1510 1510 1509 1509 1508 1507 1507 1506 1505 1505 1505 1506 1506 1506 1507 1506 1506 1506 1505 1506 1507 1508 1509 1510 1511 1512 1513 1513 1514 1516 1517 1518 1519 1520 1521 1522 1524 1525 1526 1527
1464 1460 1459 1461 1462 1465 1466 1465 1463 1461 1463 1464 1465 1468 1469 1471 1474 1474 1477 1486 1486 1480 1478 1480 1482 1485 1487 1489 1493 1494 1497 1499 1501 1503 1505 1506 1508 1509 1509 1510 1511 1511 1511 1511 1511 1511 1510 1509 1508 1508 1508 1507 1506 1505 1504 1504 1503 1503 1503 1503 1504 1504 1505 1505 1504 1504 1505 1505 1505 1506 1507 1508 1509 1509 1510 1511 1513 1514 1515 1516 1517 1518 1519 1520 1521 1523 1524
1468 1460 1460 1463 1463 1465 1469 1468 1466 1464 1464 1465 1465 1465 1465 1467 1473 1480 1485 1489 1486 1479 1478 1482 1484 1485 1486 1489 1491 1493 1496 1498 1499 1502 1503 1505 1506 1507 1508 1509 1509 1510 1510 1510 1510 1509 1509 1508 1507 1507 1506 1506 1505 1504 1503 1502 1501 1501 1501 1501 1501 1502 1502 1502 1502 1502 1503 1503 1503 1504 1504 1505 1506 1506 1507 1508 1510 1511 1512 1515 1516 1516 1516 1517 1518 1520 1520
1467 1460 1460 1462 1464 1475 1478 1469 1462 1462 1461 1462 1463 1462 1461 1461 1467 1478 1484 1481 1476 1474 1477 1482 1485 1485 1486 1488 1489 1492 1495 1497 1499 1501 1502 1503 1505 1506 1507 1508 1508 1509 1509 1509 1509 1508 1508 1507 1506 1506 1505 1505 1504 1503 1502 1501 1500 1500 1499 1499 1500 1499 1499 1500 1500 1500 1500 1500 1501 1501 1501 1502 1503 1503 1504 1504 1506 1507 1509 1511 1513 1513 1513 1514 1515 1516 1517
1468 1462 1459 1463 1475 1487 1480 1461 1453 1455 1456 1458 1462 1463 1463 1462 1462 1465 1469 1470 1472 1475 1477 1480 1483 1484 1485 1486 1488 1491 1493 1496 1498 1500 1501 1503 1504 1505 1506 1507 1507 1508 1508 1508 1508 1507 1507 1506 1506 1505 1504 1503 1503 1502 1501 1500 1499 1499 1498 1497 1497 1497 1497 1497 1497 1497 1498 1498 1498 1498 1498 1499 1499 1500 1500 1501 1502 1504 1505 1507 1508 1509 1509 1510 1511 1513 1513
1469 1463 1463 1478 1489 1481 1464 1452 1449 1451 1452 1454 1460 1464 1463 1462 1461 1462 1467 1471 1474 1476 1477 1478 1481 1483 1485 1488 1490 1491 1493 1495 1497 1499 1501 1502 1503 1504 1505 1506 1507 1507 1508 1508 1507 1507 1506 1506 1505 1504 1503 1502 1502 1501 1500 1499 1498 1498 1497 1496 1495 1495 1494 1494 1494 1495 1495 1495 1495 1495 1495 1495 1495 1496 1497 1497 1498 1500 1501 1502 1503 1504 1506 1507 1508 1509 1510
1470 1470 1474 1485 1482 1464 1453 1452 1450 1449 1453 1455 1460 1468 1467 1463 1461 1464 1470 1475 1475 1476 1478 1479 1482 1485 1487 1489 1491 1493 1495 1496 1496 1498 1500 1501 1502 1503 1504 1505 1506 1507 1507 1507 1506 1506 1505 1505 1504 1503 1502 1502 1501 1501 1500 1499 1498 1496 1496 1495 1494 1493 1492 1492 1492 1492 1492 1491 1491 1491 1491 1492 1492 1493 1493 1494 1495 1496 1497 1498 1499 1500 1502 1503 1504 1505 1506
1469 1475 1478 1476 1471 1464 1459 1456 1450 1449 1453 1453 1458 1468 1471 1465 1461 1463 1469 1475 1476 1476 1479 1480 1482 1485 1487 1491 1494 1494 1495 1496 1497 1499 1500 1501 1503 1503 1504 1505 1506 1506 1506 1505 1505 1505 1504 1504 1503 1502 1502 1501 1501 1500 1499 1498 1497 1496 1494 1493 1492 1491 1490 1490 1489 1489 1489 1488 1488 1488 1488 1488 1489 1490 1490 1491 1492 1493 1493 1494 1495 1496 1498 1499 1500 1502 1503
1467 1473 1478 1478 1481 1478 1465 1455 1448 1445 1447 1448 1450 1463 1473 1469 1463 1462 1465 1472 1475 1476 1479 1482 1482 1484 1490 1495 1495 1494 1495 1497 1497 1499 1501 1502 1503 1503 1504 1505 1505 1505 1505 1504 1504 1504 1504 1503 1503 1502 1501 1501 1500 1499 1498 1497 1496 1494 1493 1492 1491 1490 1489 1488 1487 1486 1486 1485 1485 1485 1485 1485 1486 1487 1487 1488 1488 1489 1490 1491 1492 1493 1494 1495 1496 1499 1500
1467 1471 1479 1483 1484 1476 1461 1452 1447 1443 1445 1445 1448 1467 1478 1471 1465 1464 1464 1468 1472 1473 1476 1480 1480 1485 1493 1497 1494 1493 1495 1496 1497 1499 1501 1501 1503 1503 1504 1504 1504 1504 1504 1504 1504 1504 1504 1503 1502 1501 1501 1500 1499 1498 1497 1496 1495 1493 1492 1491 1490 1489 1488 1487 1485 1484 1483 1483 1483 1482 1483 1483 1483 1484 1484 1485 1486 1487 1487 1488 1489 1490 1491 1492 1493 1495 1496
1466 1468 1475 1477 1473 1465 1454 1449 1446 1444 1443 1444 1457 1480 1483 1468 1464 1466 1463 1465 1470 1471 1474 1478 1479 1484 1489 1491 1490 1491 1494 1496 1497 1499 1500 1501 1502 1502 1503 1504 1504 1503 1503 1503 1504 1504 1503 1503 1502 1501 1500 1499 1498 1497 1496 1495 1494 1493 1492 1491 1490 1489 1488 1486 1485 1484 1483 1482 1482 1481 1481 1481 1481 1481 1482 1482 1483 1484 1485 1486 1486 1487 1488 1489 1490 1491 1492
1464 1466 1471 1471 1466 1457 1448 1445 1444 1442 1444 1453 1470 1479 1470 1460 1464 1466 1462 1464 1469 1470 1473 1476 1477 1480 1482 1483 1487 1491 1493 1495 1497 1498 1499 1500 1501 1502 1503 1503 1503 1503 1503 1503 1503 1503 1503 1502 1501 1500 1499 1498 1498 1497 1496 1495 1495 1494 1493 1491 1490 1489 1488 1486 1485 1484 1483 1483 1482 1481 1481 1481 1480 1480 1480 1481 1482 1482 1483 1484 1484 1485 1486 1486 1487 1487 1487
1464 1464 1467 1470 1464 1451 1442 1442 1442 1442 1452 1465 1467 1460 1453 1455 1462 1463 1462 1465 1467 1469 1472 1474 1475 1478 1480 1482 1486 1490 1492 1495 1496 1497 1499 1500 1501 1502 1503 1503 1502 1503 1503 1503 1503 1503 1502 1502 1501 1500 1499 1499 1498 1497 1496 1496 1495 1494 1493 1492 1491 1489 1488 1487 1486 1485 1484 1483 1482 1482 1481 1480 1480 1479 1479 1479 1480 1480 1481 1482 1482 1483 1484 1484 1484 1484 1484
1463 1464 1467 1472 1467 1449 1438 1441 1444 1445 1453 1458 1453 1449 1452 1456 1457 1460 1464 1465 1466 1468 1471 1473 1475 1478 1479 1483 1486 1489 1492 1494 1495 1497 1498 1499 1500 1501 1501 1502 1502 1502 1503 1503 1502 1502 1502 1501 1501 1500 1500 1499 1498 1498 1497 1496 1495 1494 1493 1492 1491 1490 1489 1488 1486 1485 1485 1484 1483 1482 1481 1480 1479 1479 1478 1478 1479 1479 1479 1480 1480 1481 1482 1482 1482 1482 1482
1464 1466 1465 1462 1456 1445 1439 1441 1444 1443 1445 1445 1444 1447 1454 1456 1457 1460 1463 1464 1466 1468 1469 1472 1475 1477 1480 1483 1486 1488 1492 1494 1495 1497 1498 1498 1499 1500 1500 1501 1502 1502 1502 1502 1502 1502 1502 1501 1501 1500 1500 1500 1499 1498 1497 1496 1495 1494 1493 1493 1492 1490 1489 1488 1487 1486 1485 1484 1484 1483 1482 1481 1480 1479 1478 1478 1478 1478 1478 1478 1479 1479 1480 1480 1480 1480 1480
1460 1461 1457 1450 1446 1443 1440 1438 1438 1439 1441 1443 1444 1446 1451 1455 1458 1459 1460 1463 1466 1468 1469 1471 1474 1476 1480 1483 1485 1488 1491 1492 1494 1496 1497 1498 1499 1499 1500 1501 1501 1501 1501 1501 1502 1502 1502 1502 1502 1501 1501 1500 1499 1499 1498 1497 1496 1494 1494 1493 1492 1491 1490 1489 1488 1487 1486 1486 1485 1484 1483 1482 1480 1479 1479 1478 1478 1478 1478 1478 1478 1478 1478 1479 1479 1479 1480
1456 1454 1451 1448 1445 1442 1438 1436 1437 1439 1442 1444 1446 1446 1449 1453 1456 1457 1459 1462 1465 1467 1469 1471 1473 1476 1479 1482 1485 1488 1489 1492 1494 1495 1496 1498 1498 1499 1499 1500 1500 1501 1501 1501 1502 1502 1502 1502 1502 1502 1501 1501 1500 1499 1498 1497 1496 1495 1495 1494 1493 1492 1491 1490 1489 1489 1488 1487 1486 1485 1484 1483 1482 1481 1480 1480 1480 1480 1479 1479 1479 1479 1478 1479 1479 1480 1480
1459 1456 1451 1447 1446 1443 1438 1436 1437 1439 1442 1446 1448 1449 1451 1453 1455 1457 1459 1461 1463 1466 1468 1469 1472 1476 1478 1480 1484 1487 1488 1491 1493 1494 1496 1497 1498 1498 1499 1499 1500 1501 1501 1502 1502 1502 1502 1502 1501 1502 1502 1501 1500 1500 1499 1498 1498 1497 1496 1495 1494 1493 1492 1492 1491 1491 1490 1489 1488 1487 1486 1485 1484 1483 1483 1482 1482 1482 1482 1481 1481 1481 1480 1481 1481 1481 1481
1460 1458 1453 1448 1446 1445 1441 1439 1438 1439 1441 1446 1449 1451 1453 1455 1456 1458 1458 1460 1463 1465 1467 1469 1472 1474 1477 1480 1482 1485 1487 1490 1492 1493 1495 1496 1497 1498 1499 1499 1500 1501 1501 1502 1502 1502 1502 1501 1501 1502 1502 1502 1502 1501 1500 1500 1499 1498 1497 1496 1495 1494 1494 1494 1493 1493 1492 1491 1490 1489 1488 1487 1486 1485 1485 1485 1485 1485 1485 1484 1484 1484 1483 1483 1483 1483 1483
1460 1459 1457 1452 1449 1447 1445 1444 1442 1441 1442 1445 1448 1452 1454 1455 1456 1458 1459 1461 1462 1464 1467 1469 1470 1473 1477 1478 1480 1483 1487 1489 1491 1493 1494 1496 1497 1498 1499 1500 1501 1501 1501 1502 1501 1501 1502 1501 1501 1502 1502 1503 1503 1502 1501 1501 1500 1499 1499 1498 1497 1496 1496 1495 1495 1495 1494 1493 1492 1491 1490 1489 1488 1488 1488 1488 1488 1488 1488 1488 1488 1488 1487 1487 1487 1487 1487
1463 1458 1456 1455 1454 1452 1450 1448 1446 1445 1445 1445 1447 1451 1454 1456 1457 1458 1459 1462 1464 1466 1467 1469 1470 1472 1475 1478 1480 1483 1485 1488 1490 1492 1493 1495 1497 1498 1499 1500 1500 1501 1501 1501 1501 1502 1502 1502 1502 1503 1503 1504 1504 1503 1503 1502 1502 1501 1500 1499 1499 1498 1498 1497 1497 1496 1496 1495 1494 1494 1493 1492 1491 1490 1491 1492 1492 1492 1492 1492 1493 1493 1492 1492 1493 1492 1492
1461 1455 1452 1453 1454 1454 1451 1450 1449 1448 1447 1446 1447 1450 1454 1457 1458 1459 1459 1462 1465 1467 1468 1470 1470 1472 1474 1477 1479 1482 1485 1488 1490 1491 1493 1495 1496 1497 1498 1499 1500 1501 1501 1501 1502 1502 1503 1503 1503 1504 1504 1504 1504 1504 1504 1503 1503 1503 1502 1501 1501 1500 1500 1499 1499 1498 1498 1497 1497 1496 1496 1495 1494 1493 1493 1494 1495 1496 1497 1497 1497 1498 1498 1497 1499 1498 1496
1458 1455 1454 1454 1453 1451 1450 1449 1449 1448 1448 1448 1448 1450 1454 1457 1459 1460 1461 1462 1464 1466 1469 1470 1472 1473 1474 1476 1479 1481 1484 1487 1489 1491 1493 1494 1495 1496 1497 1498 1500 1501 1501 1502 1503 1503 1504 1504 1504 1505 1505 1506 1505 1505 1505 1504 1504 1504 1504 1503 1502 1502 1501 1501 1501 1500 1500 1499 1499 1499 1498 1498 1498 1497 1496 1496 1497 1500 1501 1501 1501 1502 1503 1503 1503 1503 1502
1458 1456 1456 1455 1454 1452 1451 1449 1448 1448 1449 1449 1449 1451 1454 1457 1458 1459 1461 1462 1464 1466 1468 1470 1472 1473 1474 1476 1479 1481 1483 1486 1488 1490 1491 1493 1495 1496 1496 1498 1500 1501 1502 1503 1503 1504 1505 1505 1505 1506 1506 1506 1507 1507 1506 1506 1506 1506 1506 1505 1504 1503 1503 1503 1502 1502 1502 1502 1502 1502 1501 1501 1501 1501 1500 1499 1499 1501 1504 1505 1505 1506 1507 1507 1507 1507 1507
1457 1457 1457 1457 1456 1454 1453 1451 1450 1450 1451 1451 1451 1452 1455 1457 1458 1459 1461 1463 1465 1466 1467 1469 1471 1473 1475 1476 1478 1480 1482 1484 1486 1489 1490 1492 1494 1495 1496 1498 1500 1501 1502 1503 1504 1505 1506 1506 1506 1507 1507 1507 1508 1508 1508 1507 1507 1507 1507 1506 1506 1505 1505 1505 1505 1504 1505 1505 1505 1504 1505 1505 1504 1504 1503 1503 1502 1503 1505 1506 1508 1508 1509 1510 1511 1511 1511
1456 1456 1456 1456 1456 1455 1454 1453 1452 1452 1453 1453 1453 1454 1456 1457 1459 1460 1462 1464 1465 1467 1468 1470 1471 1473 1475 1476 1477 1479 1481 1482 1484 1487 1490 1491 1493 1494 1495 1497 1499 1501 1503 1504 1505 1506 1506 1507 1507 1507 1508 1508 1509 1509 1509 1509 1508 1508 1508 1508 1507 1507 1508 1508 1507 1507 1507 1507 1507 1507 1508 1508 1507 1507 1507 1506 1506 1507 1507 1508 1509 1510 1511 1513 1514 1514 1514
1455 1455 1455 1456 1455 1455 1454 1454 1454 1454 1454 1455 1455 1456 1457 1458 1459 1461 1462 1464 1466 1467 1468 1470 1471 1473 1474 1476 1477 1478 1479 1480 1482 1485 1488 1490 1492 1493 1495 1497 1499 1501 1503 1505 1506 1506 1506 1507 1507 1508 1508 1509 1509 1510 1510 1510 1509 1509 1510 1509 1509 1509 1509 1510 1510 1510 1510 1510 1510 1510 1510 1511 1510 1510 1510 1510 1510 1510 1510 1511 1511 1512 1513 1515 1516 1517 1518
1455 1455 1455 1455 1455 1455 1454 1454 1455 1455 1456 1457 1457 1457 1458 1459 1460 1462 1463 1464 1466 1467 1468 1470 1471 1472 1473 1475 1477 1477 1477 1478 1481 1484 1487 1489 1490 1492 1494 1496 1499 1501 1503 1505 1506 1506 1507 1507 1508 1508 1509 1509 1509 1510 1511 1511 1511 1511 1511 1511 1511 1511 1511 1512 1512 1512 1512 1512 1512 1513 1513 1513 1513 1513 1513 1513 1513 1513 1513 1514 1514 1515 1516 1517 1518 1519 1520
1454 1455 1455 1454 1454 1455 1455 1455 1455 1456 1458 1460 1460 1459 1458 1459 1461 1462 1463 1465 1466 1467 1468 1469 1471 1472 1473 1474 1476 1476 1476 1477 1480 1483 1485 1487 1489 1491 1493 1495 1498 1500 1503 1504 1505 1506 1507 1508 1508 1509 1509 1509 1510 1511 1512 1512 1512 1513 1512 1513 1513 1513 1513 1514 1513 1513 1514 1514 1514 1515 1515 1515 1515 1515 1515 1515 1516 1516 1516 1516 1517 1517 1518 1519 1521 1521 1522
1453 1454 1454 1453 1454 1455 1455 1455 1456 1457 1459 1460 1460 1459 1459 1460 1461 1462 1463 1464 1465 1466 1467 1468 1469 1470 1472 1473 1475 1475 1476 1477 1480 1482 1484 1486 1488 1490 1492 1494 1496 1499 1501 1503 1505 1506 1507 1508 1508 1509 1509 1510 1511 1511 1512 1513 1513 1514 1514 1514 1514 1514 1515 1515 1515 1515 1515 1515 1515 1516 1516 1516 1516 1516 1516 1517 1517 1518 1518 1519 1519 1520 1521 1521 1522 1523 1524
1453 1454 1454 1454 1454 1455 1455 1455 1455 1456 1457 1458 1459 1459 1459 1460 1461 1462 1463 1463 1464 1465 1466 1467 1468 1469 1471 1473 1475 1475 1476 1477 1479 1482 1483 1485 1487 1489 1491 1493 1496 1498 1501 1503 1504 1505 1507 1508 1508 1509 1509 1510 1511 1511 1512 1513 1514 1514 1515 1515 1515 1516 1516 1516 1517 1517 1517 1517 1517 1517 1517 1517 1518 1518 1518 1518 1519 1519 1520 1520 1521 1522 1523 1523 1524 1525 1526
1452 1452 1453 1454 1454 1454 1454 1454 1455 1456 1457 1457 1458 1459 1459 1460 1461 1462 1463 1463 1464 1464 1465 1466 1468 1469 1471 1473 1474 1475 1476 1478 1480 1481 1483 1484 1485 1487 1490 1493 1495 1498 1501 1502 1503 1505 1506 1508 1508 1509 1509 1510 1510 1511 1512 1513 1514 1515 1515 1516 1516 1517 1517 1517 1518 1518 1518 1518 1519 1518 1518 1519 1519 1519 1519 1520 1520 1521 1522 1522 1523 1523 1524 1525 1526 1527 1527
1450 1451 1452 1452 1453 1453 1453 1453 1454 1455 1456 1456 1457 1458 1459 1460 1461 1461 1462 1462 1463 1464 1465 1466 1467 1468 1469 1471 1473 1475 1476 1477 1479 1480 1481 1482 1484 1486 1488 1491 1494 1497 1499 1501 1502 1504 1506 1507 1508 1509 1509 1510 1510 1511 1512 1513 1514 1515 1516 1516 1517 1517 1518 1518 1519 1519 1519 1520 1520 1520 1520 1520 1520 1521 1521 1521 1521 1522 1523 1523 1524 1525 1525 1526 1527 1528 1529
1450 1450 1451 1451 1452 1452 1453 1453 1453 1454 1455 1456 1456 1457 1458 1459 1459 1460 1460 1461 1462 1464 1465 1466 1468 1469 1469 1470 1473 1475 1475 1475 1476 1478 1479 1480 1482 1484 1486 1490 1493 1495 1497 1499 1501 1502 1504 1506 1507 1508 1509 1510 1510 1511 1512 1513 1514 1515 1516 1517 1517 1518 1518 1519 1519 1520 1520 1521 1521 1521 1521 1522 1522 1522 1522 1522 1523 1523 1524 1524 1525 1526 1526 1527 1528 1529 1530
1449 1449 1450 1450 1451 1452 1452 1453 1453 1453 1454 1455 1455 1456 1456 1457 1457 1458 1459 1460 1461 1463 1465 1467 1468 1468 1468 1469 1473 1476 1477 1476 1475 1477 1478 1479 1480 1482 1484 1487 1490 1492 1495 1497 1499 1500 1502 1504 1506 1507 1509 1509 1510 1511 1512 1513 1514 1515 1516 1517 1518 1518 1519 1519 1520 1520 1521 1521 1521 1522 1522 1523 1523 1523 1524 1524 1524 1524 1525 1525 1526 1526 1527 1528 1528 1529 1530
1449 1449 1450 1450 1450 1451 1452 1452 1452 1453 1453 1454 1454 1454 1455 1455 1456 1457 1458 1459 1460 1461 1463 1465 1466 1466 1467 1469 1472 1476 1479 1478 1476 1476 1478 1478 1479 1480 1482 1485 1488 1490 1492 1494 1496 1498 1500 1502 1504 1506 1507 1508 1509 1510 1511 1512 1513 1514 1515 1516 1517 1518 1518 1519 1519 1520 1520 1520 1521 1522 1522 1523 1523 1523 1524 1525 1525 1525 1525 1526 1526 1527 1528 1528 1529 1530 1531
1448 1449 1449 1450 1450 1451 1451 1451 1452 1452 1452 1452 1452 1453 1453 1454 1454 1455 1456 1457 1458 1459 1461 1462 1463 1464 1466 1467 1470 1474 1478 1478 1477 1476 1477 1478 1478 1479 1480 1483 1485 1487 1489 1492 1495 1497 1499 1500 1502 1504 1505 1507 1508 1509 1510 1511 1512 1513 1514 1515 1516 1517 1517 1518 1518 1518 1518 1519 1520 1522 1522 1522 1523 1523 1524 1524 1525 1526 1526 1526 1527 1528 1528 1529 1529 1530 1531
1448 1448 1448 1449 1449 1450 1450 1450 1451 1451 1450 1450 1450 1451 1451 1452 1452 1453 1454 1455 1456 1457 1459 1460 1461 1462 1463 1465 1467 1470 1473 1475 1475 1475 1476 1478 1478 1478 1479 1481 1483 1485 1488 1491 1494 1496 1498 1499 1501 1502 1504 1505 1506 1507 1508 1509 1510 1511 1513 1514 1515 1516 1516 1517 1517 1518 1518 1519 1520 1521 1521 1522 1522 1522 1522 1523 1524 1525 1526 1526 1527 1528 1528 1529 1529 1530 1531
1447 1447 1447 1447 1448 1448 1448 1448 1449 1449 1449 1449 1448 1448 1449 1450 1451 1452 1453 1453 1454 1455 1457 1458 1459 1460 1461 1463 1465 1467 1470 1472 1473 1473 1475 1476 1477 1477 1478 1480 1482 1485 1488 1490 1493 1495 1497 1498 1499 1501 1502 1504 1505 1506 1507 1508 1509 1510 1511 1512 1513 1515 1516 1516 1516 1518 1518 1519 1520 1520 1521 1521 1522 1522 1522 1522 1523 1524 1525 1525 1526 1527 1528 1528 1529 1530 1531
1446 1446 1446 1446 1446 1446 1446 1447 1447 1447 1447 1448 1447 1447 1448 1448 1449 1450 1451 1452 1452 1453 1455 1455 1456 1457 1459 1460 1462 1465 1467 1469 1470 1471 1473 1474 1474 1475 1476 1478 1480 1483 1486 1489 1492 1494 1496 1497 1498 1499 1501 1502 1503 1505 1505 1506 1508 1509 1510 1511 1512 1514 1515 1515 1516 1517 1518 1519 1519 1520 1520 1521 1521 1522 1522 1522 1522 1523 1524 1524 1526 1527 1527 1528 1529 1529 1530
1446 1445 1445 1445 1445 1445 1445 1445 1446 1446 1446 1446 1446 1447 1447 1448 1448 1449 1449 1450 1451 1452 1452 1453 1454 1456 1457 1459 1461 1463 1465 1466 1468 1469 1471 1472 1472 1473 1474 1476 1479 1482 1485 1488 1490 1492 1494 1496 1497 1498 1500 1501 1502 1503 1504 1505 1506 1508 1509 1510 1511 1513 1514 1515 1515 1516 1517 1518 1519 1519 1519 1520 1520 1521 1521 1521 1521 1522 1523 1524 1525 1526 1527 1528 1528 1529 1529
1446 1446 1445 1445 1445 1444 1444 1445 1445 1445 1445 1445 1445 1445 1446 1446 1447 1447 1447 1448 1449 1449 1450 1451 1452 1454 1455 1457 1459 1461 1462 1464 1465 1467 1469 1470 1472 1472 1473 1475 1479 1482 1485 1487 1489 1491 1493 1494 1496 1497 1499 1500 1501 1502 1503 1504 1505 1506 1507 1509 1510 1512 1513 1514 1515 1515 1516 1517 1517 1518 1518 1519 1519 1520 1521 1521 1521 1521 1522 1523 1524 1525 1526 1527 1528 1528 1529
1446 1446 1445 1445 1445 1444 1444 1444 1444 1443 1444 1444 1443 1443 1444 1444 1444 1444 1445 1445 1445 1446 1447 1448 1449 1450 1452 1454 1456 1457 1459 1460 1462 1464 1466 1468 1470 1471 1472 1474 1477 1481 1483 1486 1487 1489 1491 1493 1495 1496 1498 1499 1500 1501 1502 1503 1504 1505 1506 1507 1509 1510 1512 1513 1514 1515 1515 1516 1516 1516 1517 1517 1518 1519 1520 1520 1521 1521 1521 1522 1523 1524 1525 1526 1527 1527 1528
1446 1445 1445 1444 1444 1443 1443 1443 1442 1442 1441 1441 1441 1441 1442 1442 1442 1443 1443 1443 1443 1444 1444 1445 1446 1447 1449 1451 1453 1455 1456 1458 1459 1461 1463 1465 1467 1469 1470 1472 1475 1478 1481 1484 1486 1488 1490 1492 1493 1495 1496 1497 1498 1499 1500 1501 1502 1503 1504 1506 1508 1509 1510 1511 1512 1513 1514 1515 1515 1516 1516 1517 1518 1518 1519 1520 1521 1521 1521 1521 1522 1523 1524 1525 1526 1526 1527
1445 1445 1444 1444 1444 1443 1443 1443 1442 1441 1440 1439 1439 1440 1440 1440 1440 1441 1441 1441 1442 1442 1443 1443 1444 1445 1447 1448 1450 1453 1454 1456 1457 1459 1461 1463 1465 1466 1468 1471 1474 1476 1479 1481 1484 1486 1488 1490 1492 1493 1494 1495 1496 1497 1498 1500 1501 1502 1503 1505 1506 1507 1509 1510 1511 1512 1513 1514 1514 1515 1516 1517 1517 1518 1518 1519 1520 1520 1521 1521 1521 1522 1523 1524 1525 1526 1527
1445 1445 1444 1444 1444 1444 1443 1443 1441 1440 1439 1439 1438 1438 1438 1438 1439 1439 1439 1439 1440 1440 1441 1442 1443 1444 1445 1446 1448 1451 1452 1454 1456 1458 1460 1462 1464 1465 1466 1469 1473 1476 1478 1479 1481 1484 1487 1488 1490 1491 1492 1494 1495 1496 1497 1498 1499 1501 1502 1504 1505 1506 1507 1508 1510 1511 1512 1512 1513 1514 1515 1516 1517 1517 1518 1518 1519 1519 1520 1520 1521 1521 1522 1523 1524 1525 1525
1445 1445 1444 1444 1444 1443 1443 1442 1441 1440 1439 1438 1438 1437 1437 1437 1437 1437 1437 1437 1437 1438 1439 1440 1441 1442 1444 1445 1447 1449 1450 1452 1454 1456 1458 1460 1461 1463 1464 1467 1470 1474 1476 1478 1480 1483 1485 1486 1488 1489 1491 1492 1493 1494 1495 1496 1498 1499 1501 1502 1503 1505 1506 1508 1509 1510 1510 1511 1512 1513 1514 1515 1516 1517 1517 1518 1518 1519 1519 1519 1520 1520 1521 1521 1522 1523 1524
1445 1444 1444 1443 1443 1442 1442 1441 1440 1439 1439 1438 1437 1437 1437 1436 1436 1436 1436 1436 1436 1437 1438 1439 1440 1442 1443 1444 1446 1448 1449 1451 1453 1455 1457 1457 1458 1460 1463 1465 1468 1471 1474 1476 1479 1481 1483 1485 1486 1488 1489 1490 1491 1492 1493 1495 1496 1498 1500 1501 1502 1504 1505 1506 1508 1508 1509 1510 1511 1512 1513 1514 1515 1515 1516 1516 1517 1517 1518 1518 1519 1519 1519 1520 1521 1521 1522
1444 1443 1442 1442 1441 1441 1440 1440 1439 1439 1438 1437 1437 1436 1436 1436 1436 1435 1435 1436 1436 1436 1437 1439 1440 1441 1443 1444 1445 1447 1449 1450 1452 1454 1455 1456 1456 1458 1461 1464 1467 1469 1472 1474 1477 1479 1482 1484 1485 1487 1488 1488 1490 1491 1491 1493 1495 1497 1498 1499 1501 1503 1504 1506 1507 1507 1508 1509 1510 1511 1512 1513 1513 1514 1514 1515 1515 1516 1516 1517 1517 1518 1518 1519 1519 1520 1521
1443 1442 1442 1441 1440 1439 1439 1438 1438 1438 1437 1437 1436 1436 1436 1435 1435 1435 1435 1435 1436 1436 1437 1438 1439 1440 1441 1443 1444 1446 1447 1449 1450 1452 1453 1454 1455 1457 1460 1462 1465 1468 1470 1473 1476 1478 1480 1482 1484 1485 1486 1487 1488 1489 1490 1492 1493 1495 1497 1498 1500 1502 1503 1505 1506 1507 1507 1508 1509 1510 1511 1511 1512 1512 1513 1513 1514 1514 1515 1515 1516 1517 1517 1518 1518 1519 1519
1442 1441 1440 1439 1438 1437 1437 1436 1436 1436 1437 1436 1436 1435 1434 1434 1434 1434 1434 1434 1434 1435 1436 1437 1438 1439 1440 1442 1443 1445 1446 1447 1449 1450 1451 1453 1454 1456 1458 1460 1463 1465 1467 1471 1474 1477 1479 1481 1482 1484 1485 1486 1487 1488 1489 1491 1492 1494 1495 1497 1499 1501 1503 1504 1505 1506 1506 1507 1508 1509 1510 1510 1510 1510 1511 1512 1512 1513 1513 1514 1515 1515 1516 1517 1518 1518 1519